Regional Weather Roundup
Issued by NWS Cleveland, OH

Home | Current Version | Previous Version | Graphics & Text | Print | Product List | Glossary On
Versions: 1 2 3 4 5 6 7 8 9 10 11 12 13 14 15 16 17 18 19 20 21 22 23 24 25 26 27 28 29 30 31 32 33 34 35 36 37 38 39 40 41 42 43 44 45 46 47 48 49 50
000
ASUS41 KCLE 262310
RWRCLE
OHIO REGIONAL WEATHER ROUNDUP
NATIONAL WEATHER SERVICE CLEVELAND, OH
600 PM EST FRI DEC 26 2014

NOTE: "FAIR" INDICATES FEW OR NO CLOUDS BELOW 12,000 FEET WITH NO
SIGNIFICANT WEATHER AND/OR OBSTRUCTIONS TO VISIBILITY.

OHZ001>008-015>018-024>027-034-035-043-044-270000-
   NORTHWEST OHIO

CITY           SKY/WX    TMP DP  RH WIND       PRES   REMARKS
DEFIANCE       MOCLDY    43  38  82 S3        30.11S
FINDLAY        PTCLDY    41  36  82 S8        30.12S
TOLEDO EXPRESS MOCLDY    43  38  82 S5        30.11R
TOLEDO EXEC    MOCLDY    42  36  79 S6        30.12R
LIMA           PTCLDY    46  37  71 S10       30.12S
$$

OHZ009>014-019>023-028>033-038-089-270000-
   NORTHEAST OHIO

CITY           SKY/WX    TMP DP  RH WIND       PRES   REMARKS
CLE-HOPKINS    MOCLDY    46  35  65 S9        30.17R
CLE-LAKEFRONT  PTCLDY    48  35  60 S8        30.14R
CUY CO. ARPT   MOCLDY    48  37  66 SW13      30.15R
LORAIN-ELYRIA  PTCLDY    44  36  73 SW9       30.16R
ASHTABULA      PTCLDY    43  33  68 S8        30.16R
AKRON-CANTON   MOCLDY    44  34  67 SW10      30.17R
WOOSTER        PTCLDY    42  35  76 SW9       30.17R
MANSFIELD      MOCLDY    43  36  76 S13       30.15R
YOUNGSTOWN     CLOUDY    45  32  60 SW6       30.16S
$$

OHZ042-051>053-060>062-070>072-077>081-270000-
  SOUTHWEST OHIO

CITY           SKY/WX    TMP DP  RH WIND       PRES   REMARKS
CINC-COVINGTON CLOUDY    49  33  54 S12       30.17S
CINC-LUNKEN    MOCLDY    45  35  68 S7        30.19S
HAMILTON       CLOUDY    51  34  52 S5        30.18S
DAYTON         CLOUDY    48  35  60 S10       30.16S
WRIGHT-PAT AFB CLOUDY    46  36  66 S8        30.16S
DAYTON GENERAL CLOUDY    45  35  68 S6        30.16S
WILMINGTON     CLOUDY    44  36  73 S8        30.18S
$$

OHZ036-037-039>041-045>050-054>059-063>069-073>076-082>088-270000-
  CENTRAL AND SOUTHEAST OHIO

CITY           SKY/WX    TMP DP  RH WIND       PRES   REMARKS
COLUMBUS       CLOUDY    45  35  68 S5        30.18F
OSU AIRPORT    CLOUDY    46  36  68 S8        30.18R
BOLTON FIELD   CLOUDY    45  37  76 S7        30.19S
RICKENBACK AFB CLOUDY    43  37  77 S6        30.19S
NEWARK         CLOUDY    46  35  65 S5        30.19R
MARION         MOCLDY    44  36  73 S13       30.15R
LANCASTER      CLOUDY    46  35  65 S6        30.20S
ZANESVILLE     CLOUDY    43  33  68 S5        30.21R
NEW PHILLY     MOCLDY    44  34  67 S6        30.20S
$$



USA.gov is the U.S. government's official web portal to all federal, state and local government web resources and services.